This demonstration page uses our WeatherBlox Daily Observations layout. Learn more.

Left ArrowRight Arrow

39.29038, -76.61219

Hourly Observations for December 2, 2020

Temp ( °F °C ) Dew Point ( °F °C ) Humidity (%) Winds ( mph kmh ) Pressure ( in mb ) Visibility ( mi km ) Precip ( " mm )
12:54 am 00:54 Mostly Cloudy 40 4.4 21 -6.1 47 47 W 12 19 29.92 1013 10 16 0.00 0.00
1:54 am 01:54 Mostly Cloudy 39 3.9 20 -6.7 46 46 WSW 10 17 29.93 1014 10 16 0.00 0.00
2:54 am 02:54 Mostly Cloudy 38 3.3 21 -6.1 51 51 WSW 10 17 29.93 1014 10 16 0.00 0.00
3:54 am 03:54 Mostly Cloudy 39 3.9 21 -6.1 48 48 SW 7 11 29.94 1014 10 16 0.00 0.00
4:54 am 04:54 Cloudy 39 3.9 23 -5 53 53 WSW 12 19 29.96 1015 10 16 0.00 0.00
5:54 am 05:54 Cloudy 39 3.9 23 -5 53 53 WSW 9 15 29.98 1015 10 16 0.00 0.00
6:54 am 06:54 Mostly Cloudy 40 4.4 23 -5 51 51 WSW 10 17 29.99 1016 10 16 0.00 0.00
7:54 am 07:54 Mostly Cloudy 40 4.4 24 -4.4 53 53 SW 7 11 30.01 1016 10 16 0.00 0.00
8:54 am 08:54 Mostly Cloudy 41 5 26 -3.3 55 55 W 15 24 30.04 1017 10 16 0.00 0.00
9:54 am 09:54 Mostly Cloudy 42 5.6 26 -3.3 53 53 W 14 22 30.06 1018 10 16 0.00 0.00
10:54 am 10:54 Mostly Cloudy 44 6.7 27 -2.8 51 51 W 21 33 30.06 1018 10 16 0.00 0.00
11:54 am 11:54 Partly Cloudy 45 7.2 26 -3.3 48 48 WNW 20 31 30.07 1018 10 16 0.00 0.00
12:54 pm 12:54 Mostly Sunny 47 8.3 27 -2.8 46 46 WNW 20 31 30.06 1018 10 16 0.00 0.00
1:54 pm 13:54 Mostly Sunny 48 8.9 24 -4.4 39 39 WNW 21 33 30.07 1018 10 16 0.00 0.00
2:54 pm 14:54 Sunny 48 8.9 23 -5 37 37 WNW 13 20 30.09 1019 10 16 0.00 0.00
3:54 pm 15:54 Sunny 47 8.3 23 -5 39 39 W 15 24 30.12 1020 10 16 0.00 0.00
4:54 pm 16:54 Clear 44 6.7 22 -5.6 41 41 W 14 22 30.14 1021 10 16 0.00 0.00
5:54 pm 17:54 Clear 41 5 21 -6.1 45 45 W 7 11 30.17 1022 10 16 0.00 0.00
6:54 pm 18:54 Clear 41 5 21 -6.1 45 45 W 9 15 30.18 1022 10 16 0.00 0.00
7:54 pm 19:54 Clear 39 3.9 20 -6.7 46 46 W 8 13 30.20 1023 10 16 0.00 0.00
8:54 pm 20:54 Clear 39 3.9 20 -6.7 46 46 W 9 15 30.21 1023 10 16 0.00 0.00
9:54 pm 21:54 Clear 38 3.3 20 -6.7 48 48 WSW 9 15 30.21 1023 10 16 0.00 0.00
10:54 pm 22:54 Clear 37 2.8 20 -6.7 50 50 WSW 6 9 30.23 1024 10 16 0.00 0.00
11:54 pm 23:54 Mostly Clear 33 0.6 20 -6.7 58 58 W 7 11 30.23 1024 10 16 0.00 0.00

Powered by AerisWeather